Location: Evansville
(37.9747°N, 87.5558°W)
Time: 12:35:12
(UTC-06:00)

BlueWalker 3 - Visible Passes

Search period start: 12 December 2025 00:00
Search period end: 22 December 2025 00:00
Orbit: 455 x 462 km, 53.2° (Epoch: 11 December)

Date Brightness Start Highest point End Pass type
(mag) Time Alt. Az. Time Alt. Az. Time Alt. Az.
12 Dec 5.0 17:40:02 10° W 17:42:12 15° SW 17:44:23 10° SSW visible
13 Dec 4.9 17:04:40 10° WNW 17:07:23 20° SW 17:10:07 10° S visible
18 Dec 4.8 05:58:43 10° S 06:01:19 19° SE 06:03:56 10° E visible
19 Dec 4.9 05:24:26 10° SSE 05:26:24 14° SE 05:28:23 10° E visible
20 Dec 5.2 04:50:53 10° SE 04:51:29 10° SE 04:52:06 10° ESE visible
20 Dec 1.7 06:24:56 10° SW 06:28:30 74° NW 06:32:06 10° NE visible
21 Dec 1.8 05:49:53 10° SW 05:53:27 81° SE 05:57:03 10° NE visible
